EST,Max TemperatureF,Mean TemperatureF,Min TemperatureF,Max Dew PointF,MeanDew PointF,Min DewpointF,Max Humidity, Mean Humidity, Min Humidity, Max Sea Level PressureIn, Mean Sea Level PressureIn, Min Sea Level PressureIn, Max VisibilityMiles, Mean VisibilityMiles, Min VisibilityMiles, Max Wind SpeedMPH, Mean Wind SpeedMPH, Max Gust SpeedMPH,PrecipitationIn, CloudCover, Events, WindDirDegrees
2013-2-1,28,25,22,23,11,2,68,56,44,30.40,30.06,29.83,10,8,0,30,16,39,T,5,Fog-Snow,292
2013-2-2,24,19,14,22,11,3,64,57,50,30.40,30.22,30.05,10,9,3,17,7,23,0.00,5,Snow,193
2013-2-3,32,26,19,26,22,14,100,89,78,30.04,29.91,29.79,10,6,1,9,3,13,T,8,Snow,258
2013-2-4,33,28,22,28,19,8,68,55,41,30.11,29.98,29.87,10,6,1,26,14,33,T,7,Snow,263
2013-2-5,34,32,29,32,29,28,100,95,89,29.97,29.89,29.83,6,3,1,8,3,10,T,7,Snow,339
2013-2-6,38,32,26,30,24,18,100,76,52,30.38,30.16,29.91,10,8,0,17,8,21,0.00,5,Fog,301
2013-2-7,36,30,23,26,21,17,88,70,51,30.46,30.37,30.24,10,9,6,14,4,17,0.00,5,,116
2013-2-8,35,34,32,36,30,19,100,88,75,30.20,29.91,29.78,10,6,1,14,5,16,0.02,8,Rain-Snow,354
2013-2-9,37,31,25,19,15,11,69,51,32,30.43,30.26,30.03,10,10,10,32,20,40,0.00,4,,324
2013-2-10,42,31,19,19,15,13,77,55,32,30.49,30.38,30.21,10,10,9,15,4,21,0.00,0,,152
2013-2-11,54,44,34,46,35,21,100,72,44,30.20,29.93,29.69,10,8,4,17,9,23,0.13,5,Rain,177
2013-2-12,51,46,41,30,26,24,58,47,36,30.03,29.96,29.88,10,10,10,29,15,36,0.00,3,,314
2013-2-13,41,34,27,34,30,23,92,76,60,29.97,29.79,29.67,10,4,0,12,4,15,T,6,Fog-Snow,345
2013-2-14,48,39,30,33,28,23,100,73,45,30.03,29.94,29.76,10,8,0,15,5,18,0.00,3,Fog,204
2013-2-15,50,41,32,36,31,25,75,63,50,30.06,30.01,29.97,10,9,4,17,6,22,T,4,Rain,244
2013-2-16,36,34,31,33,24,15,100,74,47,30.02,29.96,29.90,10,9,6,15,5,17,T,5,Snow,330
2013-2-17,30,25,20,19,13,5,77,58,39,30.24,30.00,29.90,10,7,2,29,15,36,T,5,Snow,301
2013-2-18,39,28,16,17,8,4,56,42,27,30.40,30.28,30.14,10,10,10,18,6,24,0.00,0,,222
2013-2-19,47,38,29,39,27,17,96,70,44,30.10,29.89,29.69,10,7,0,18,10,23,0.05,5,Fog-Rain-Snow,189
2013-2-20,32,28,24,18,12,7,61,54,46,30.19,30.05,29.90,10,10,10,29,19,43,0.00,7,,290
2013-2-21,34,28,22,15,13,9,59,50,41,30.37,30.25,30.16,10,10,10,25,15,31,0.00,4,,308
2013-2-22,32,28,23,27,22,16,92,75,58,30.41,30.31,30.22,10,9,4,12,5,15,0.02,6,Rain,141
2013-2-23,44,38,31,38,33,27,100,90,79,30.21,30.01,29.85,9,5,0,9,4,12,0.00,8,Fog,353
2013-2-24,46,40,33,37,31,18,100,73,45,30.16,29.91,29.79,10,5,0,25,9,31,0.00,6,Fog,302
2013-2-25,46,36,25,23,20,18,69,53,37,30.25,30.21,30.17,10,10,10,12,4,20,0.00,0,,6
2013-2-26,39,35,30,37,31,22,92,76,59,30.23,29.96,29.67,10,6,2,17,7,23,0.20,6,Rain,62
2013-2-27,49,42,35,39,35,31,100,75,50,29.72,29.64,29.55,10,7,1,21,10,25,0.01,7,Rain,294
2013-2-28,42,38,34,34,29,25,85,68,51,29.76,29.69,29.64,10,10,9,22,9,28,T,7,Rain,270